Location: Lomond
(50.3500°N, 112.6333°W)
Time: 08:13:20
(UTC+00:00)

KAITUO 1B - Visible Passes

Search period start: 08 December 2023 00:00
Search period end: 18 December 2023 00:00
Orbit: 343 x 351 km, 97.4° (Epoch: 07 December)

Date Brightness Start Highest point End Pass type
(mag) Time Alt. Az. Time Alt. Az. Time Alt. Az.
09 Dec ? 14:28:32 10° NE 14:30:18 15° E 14:32:03 10° SE visible
13 Dec ? 14:30:53 10° NE 14:32:42 16° E 14:34:30 10° SE visible
17 Dec ? 14:29:00 10° ENE 14:30:38 14° E 14:32:16 10° SE visible
